sat.trackr.live / text

‹ back to catalog

STARLINK-37337

NORAD 68953 · 2026-099C

PAYLOAD ACTIVE UNKNOWN

§ Identity

Operator
Country
US
Launch date
2026-05-01
Launch site
AFETR
Launch vehicle
Mass (kg)
RCS (m²)

Purposes: comms

External: N2YO · Heavens-Above · Gunter

§ Orbital elements

Epoch: 2026-09-20T04:32:50.336736Z

Period
93.85 min
Inclination
53.1571°
Eccentricity
0.0001068
Mean motion
15.34399766 rev/d
Perigee alt
462.0 km
Apogee alt
463.4 km
Semi-major
6,840.8 km
B*
3.4910e-4
RAAN
77.4816°
Arg perigee
101.0545°
Mean anomaly
259.0578°
Rev number
2,185

§ Raw data

STARLINK-373371 68953U 26099C   26263.18947149  .00011437  00000+0  34910-3 0  99942 68953  53.1571  77.4816 0001068 101.0545 259.0578 15.34399766 21854

JSON: /api/v1/satellites/68953 · /tle

For live sub-satellite position, see the globe view (requires WebGL).

§ Visibility from observer

Set your observer location to see the next 7 days of passes ≥ 10°. The values pass through the URL so the page stays shareable.

No JS? Fill the form by hand. The geolocation button needs JavaScript.